Tracking 17856 objects as of 28-September-2016
HD Live streaming from Space Station
objects crossing your sky now

SL-12 R/B(AUX MOTOR)

Track SL-12 R/B(AUX MOTOR) now!


NORAD ID: 25053
Int'l Code: 1997-070E
Perigee: 951.2 km
Apogee: 33,211.2 km
Inclination: 45.4 °
Period: 595.7 minutes
Semi major axis: 23452 km
RCS: 0.8237 m2 (medium)
Launch date: November 12, 1997
Source: Commonwealth of Independent States (former USSR) (CIS)
Launch site: TYURATAM MISSILE AND SPACE COMPLEX (TTMTR)

Note: This is a ROCKET BODY
Your satellite tracking list
Your tracking list is empty





NASA's NSSDC Master Catalog

Two Line Element Set (TLE):
1 25053U 97070E   16269.98797199  .00000082  00000-0  27856-2 0  9991
2 25053  45.4009 208.2509 6877819  90.2503 342.0036  2.41728071166025
Source of the keplerian elements: AFSPC

N2YO: 494